AirNav   Bose Proflight aviation headeet
 
 309 users online  

64S Prospect State Airport
Prospect, Oregon, USA

GOING TO PROSPECT?


FAA INFORMATION EFFECTIVE 03 JANUARY 2019

Location

FAA Identifier: 64S
Lat/Long: 42-44-33.3000N / 122-29-20.3000W
42-44.555000N / 122-29.338333W
42.7425833 / -122.4889722
(estimated)
Elevation: 2578 ft. / 786 m (estimated)
Variation: 18E (1985)
From city: 1 mile S of PROSPECT, OR
Time zone: UTC -8 (UTC -7 during Daylight Saving Time)
Zip code: 97536

Airport Operations

Airport use: Open to the public
Activation date: 11/1963
Control tower: no
ARTCC: SEATTLE CENTER
FSS: MC MINNVILLE FLIGHT SERVICE STATION
NOTAMs facility: MMV (NOTAM-D service available)
Attendance: UNATNDD
Wind indicator: yes
Segmented circle: yes
NSTD CIRCLE MARKINGS; TIRES PAINTED WHITE AND ORANGE.
Beacon: white-green (lighted land airport)
TREES OBSCURE VIEW OF ROTG BCN FROM SE-SW QUADRANTS OF ARPT. Operates sunset to sunrise.

Airport Communications

CTAF/UNICOM: 122.8

Nearby radio navigation aids

VOR radial/distance  VOR name  Freq  Var
OEDr031/24.5ROGUE VALLEY VORTAC113.6019E

 
NDB name  Hdg/Dist  Freq  Var  ID
MEDFORD023/27.235616EMEF -- . ..-.

Airport Services

Parking: tiedowns
Airframe service: NONE
Powerplant service: NONE
Bottled oxygen: NONE
Bulk oxygen: NONE

Runway Information

Runway 2/20

Dimensions: 4000 x 50 ft. / 1219 x 15 m
Surface: asphalt, in fair condition
Runway edge lights: low intensity
LIRL OTS INDEF.
RUNWAY 2  RUNWAY 20
Latitude: 42-44.304067N42-44.807270N
Longitude: 122-29.626075W122-29.049453W
Elevation: 2527.0 ft.2578.0 ft.
Gradient: 1.3% UP1.0%
Traffic pattern: leftleft
Runway heading: 022 magnetic, 040 true202 magnetic, 220 true
Markings: basic, in good conditionbasic, in good condition
Obstructions: 20 ft. trees, 225 ft. from runway, 30 ft. both sides of centerline, 1:1 slope to clear
RY 2 +70' UNLIGHTED TREES ABEAM THLD 120' L OF CNTRLN.
103 ft. trees, 1123 ft. from runway, 20 ft. both sides of centerline, 8:1 slope to clear
RY 20 +100' UNLIGHTED TREES 900'-1300' FROM RY END ON CNTRLN; +70' UNLIGHTED TREES ABEAM THLD 150-200' L OF CNTRLN; 10' BRUSH FROM 0-200' AND 50' RIGHT OF CENTERLINE.

Airport Ownership and Management from official FAA records

Ownership: Publicly-owned
Owner: OREGON DEPT. OF AVIATION
3040 25TH ST, SE
SALEM, OR 97302-1125
Phone 503-378-4880
Manager: STATE AIRPORTS MANAGER
3040 25TH ST, SE
SALEM, OR 97302-1125
Phone 503-378-4880

Airport Operational Statistics

Aircraft based on the field: 1
Single engine airplanes: 1
    
Aircraft operations: avg 23/week *
71% transient general aviation
16% air taxi
12% local general aviation
* for 12-month period ending 08 March 2016

Additional Remarks

80 FT - 100 FT TREES WITH IN 200 FT OF RY CNTRLN BOTH SIDES OF RY.
TURF TIE DOWN AREA ROUGH.
IRREGULAR WINTER MAINTENANCE; ARPT MAY BE CLOSED BY SNOW.
ARPT CLSD SS-SR
SURFACE CONDITIONS NOT REPORTED.

Instrument Procedures

There are no published instrument procedures at 64S.

Some nearby airports with instrument procedures:

KMFR - Rogue Valley International - Medford Airport (28 nm SW)
3S8 - Grants Pass Airport (42 nm W)
KRBG - Roseburg Regional Airport (48 nm NW)
KLMT - Crater Lake-Klamath Regional Airport (49 nm SE)
KSIY - Siskiyou County Airport (58 nm S)
 
Loc | Ops | Rwys | IFR | FBO | Links
Com | Nav | Svcs | Stats | Notes
Area around 64S (Prospect State Airport)
 
Road maps at: MapQuest Bing Google
 
Aerial photo
WARNING: Photo may not be current or correct
Aerial photo of 64S (Prospect State Airport)
Do you have a better or more recent aerial photo of Prospect State Airport that you would like to share? If so, please send us your photo.

 
Sectional chart

 
Airport distance calculator
Flying to Prospect State Airport? Find the distance to fly.

From to 64S

Sunrise and sunset
Times for 23-Jan-2019
 Local
(UTC-8)
 Zulu
(UTC)
Morning civil twilight07:0315:03
Sunrise07:3415:34
Sunset17:1001:10
Evening civil twilight17:4101:41

Current date and time
Zulu (UTC)  23-Jan-2019 08:48:17
Local (UTC-8)  23-Jan-2019 00:48:17
 
METAR
KMFR 
27nm SW 
230753Z AUTO 14004KT 10SM OVC035 02/00 A3049 RMK AO2 SLP333 T00220000 400890006
S03 
34nm S 
SuperAWOS
230815Z AUTO 00000KT 10SM 00/00 A3048
KSXT 
40nm W 
230816Z AUTO 20010KT M1/4SM FG VV001 02/02 A3040 RMK AO2 UPE0759SNB0759E09 P0000 T00170017
K3S8 
42nm W 
230835Z AUTO 00000KT 10SM OVC036 04/03 A3051 RMK AO2
KRBG 
48nm NW 
230753Z AUTO 15004KT 10SM FEW027 BKN055 08/06 A3042 RMK AO2 SLP303 T00830061 400890033
KLMT 
49nm SE 
230753Z AUTO 15003KT 10SM CLR M01/M05 A3039 RMK AO2 SLP309 T10111050 400441039 $
TAF
KMFR 
27nm SW 
230520Z 2306/2406 04005KT P6SM OVC100 FM231400 00000KT P6SM BKN025 FM231700 02003KT 6SM -RA OVC025
NOTAMs
Click for the latest NOTAMs
NOTAMs are issued by the DoD/FAA and will open in a separate window not controlled by AirNav.

 

 
 

Would you like to see your business listed on this page?

 If your business provides an interesting product or service to pilots, flight crews, aircraft, or users of the Prospect State Airport, you should consider listing it here.  To start the listing process, click on the button below
 
Add a business
 

Other Pages about Prospect State Airport

Update a link
 
Copyright © AirNav, LLC. All rights reserved. Privacy Policy  Contact